05.05.2024;18:00;4
05.05.2024;17:00;2
05.05.2024;16:00;2
05.05.2024;15:00;2
05.05.2024;14:00;2
05.05.2024;13:00;2
05.05.2024;12:00;2
05.05.2024;11:00;4
05.05.2024;10:00;4
05.05.2024;09:00;3
05.05.2024;08:00;8
05.05.2024;07:00;9
05.05.2024;06:00;9
05.05.2024;05:00;8
05.05.2024;04:00;10
05.05.2024;03:00;8
05.05.2024;02:00;11
05.05.2024;01:00;12
04.05.2024;24:00;11
04.05.2024;23:00;9
04.05.2024;22:00;9
04.05.2024;21:00;9
04.05.2024;20:00;7
04.05.2024;19:00;6
04.05.2024;18:00;5
04.05.2024;17:00;4
04.05.2024;16:00;5
04.05.2024;15:00;4
04.05.2024;14:00;3
04.05.2024;13:00;6
04.05.2024;12:00;8
04.05.2024;11:00;9
04.05.2024;10:00;7
04.05.2024;09:00;9
04.05.2024;08:00;9
04.05.2024;07:00;6
04.05.2024;06:00;6
04.05.2024;05:00;6
04.05.2024;04:00;3
04.05.2024;03:00;2
04.05.2024;02:00;4
04.05.2024;01:00;12
03.05.2024;24:00;10
03.05.2024;23:00;10
03.05.2024;22:00;9
03.05.2024;21:00;9
03.05.2024;20:00;7
03.05.2024;19:00;7
03.05.2024;18:00;6
03.05.2024;17:00;5
03.05.2024;16:00;4
03.05.2024;15:00;3
03.05.2024;14:00;3
03.05.2024;13:00;4
03.05.2024;12:00;3
03.05.2024;11:00;2
03.05.2024;10:00;2
03.05.2024;09:00;2
03.05.2024;08:00;4
03.05.2024;07:00;5
03.05.2024;06:00;3
03.05.2024;05:00;2
03.05.2024;04:00;2
03.05.2024;03:00;3
03.05.2024;02:00;6
03.05.2024;01:00;7
02.05.2024;24:00;6
02.05.2024;23:00;9
02.05.2024;22:00;11
02.05.2024;21:00;10
02.05.2024;20:00;16
02.05.2024;19:00;24
02.05.2024;18:00;15
02.05.2024;17:00;13
02.05.2024;16:00;13
02.05.2024;15:00;14
02.05.2024;14:00;16
02.05.2024;13:00;13
02.05.2024;12:00;15
02.05.2024;11:00;15
02.05.2024;10:00;15
02.05.2024;09:00;16
02.05.2024;08:00;12
02.05.2024;07:00;18
02.05.2024;06:00;14
02.05.2024;05:00;16
02.05.2024;04:00;14
02.05.2024;03:00;15
02.05.2024;02:00;21
02.05.2024;01:00;15
01.05.2024;24:00;14
01.05.2024;23:00;14
01.05.2024;22:00;11
01.05.2024;21:00;15
01.05.2024;20:00;17
01.05.2024;19:00;22
01.05.2024;18:00;18
01.05.2024;17:00;22
01.05.2024;16:00;20
01.05.2024;15:00;19
01.05.2024;14:00;18
01.05.2024;13:00;18
01.05.2024;12:00;16
01.05.2024;11:00;19
01.05.2024;10:00;15
01.05.2024;09:00;16
01.05.2024;08:00;16
01.05.2024;07:00;23
01.05.2024;06:00;19
01.05.2024;05:00;24
01.05.2024;04:00;20
01.05.2024;03:00;24
01.05.2024;02:00;28
01.05.2024;01:00;25
30.04.2024;24:00;25
30.04.2024;23:00;25
30.04.2024;22:00;31
30.04.2024;21:00;29
30.04.2024;20:00;29
30.04.2024;19:00;28
30.04.2024;18:00;27
30.04.2024;17:00;29
30.04.2024;16:00;24
30.04.2024;15:00;21
30.04.2024;14:00;19
30.04.2024;13:00;22
30.04.2024;12:00;18
30.04.2024;11:00;17
30.04.2024;10:00;23
30.04.2024;09:00;22
30.04.2024;08:00;15
30.04.2024;07:00;14
30.04.2024;06:00;9
30.04.2024;05:00;11
30.04.2024;04:00;12
30.04.2024;03:00;10
30.04.2024;02:00;10
30.04.2024;01:00;10
